Shinsei Maru — JD2188 — position and weather

sailwx.info

Track history (hours):
 
Tides and Currents Weather Stations Pressure Air Temp Water Temp Dewpoint Dewpoint Depression Visibility Wind Speed Wind Dir Waves Ship Positions

Shinsei Maru

Last reported at 2014-Oct-20 22:33 UTC. Time now 2014-Oct-20 22:59 UTC.
Position N 35°14' E 139°47'.

Length 104 m; draft 6.5 m.

Type: Tanker. MMSI: 431301775.

Date/timePositionNaut miles runAvg speedWind from/ knotsBaromVisibWave heightAir tempDewpointWater temp
2014-Oct-20 22:33N 35°14' E 139°47'  
2014-Oct-18 09:17N 35°04' E 139°43'1014.5
2014-Oct-18 08:33N 35°14' E 139°46'1212.4
2014-Oct-18 07:33N 35°26' E 139°44'5 4.9
2014-Oct-18 06:28N 35°31' E 139°46'0 0.1
2014-Oct-18 05:33N 35°31' E 139°46'0 0.0
2014-Oct-18 04:31N 35°31' E 139°46'0 0.0
2014-Oct-18 03:28N 35°31' E 139°46'0 0.0
2014-Oct-18 02:34N 35°31' E 139°46'0 0.0
2014-Oct-18 01:34N 35°31' E 139°46'0 0.0
2014-Oct-18 00:28N 35°31' E 139°46'0 0.0
2014-Oct-17 23:31N 35°31' E 139°46'0 0.0
2014-Oct-17 22:31N 35°31' E 139°46'0 0.4
2014-Oct-17 21:33N 35°31' E 139°46'1 0.7
2014-Oct-17 20:31N 35°30' E 139°45'0 0.0
2014-Oct-17 19:33N 35°30' E 139°45'0 0.0
2014-Oct-17 18:33N 35°30' E 139°45'0 0.0
2014-Oct-17 17:33N 35°30' E 139°45'0 0.0
2014-Oct-17 16:33N 35°30' E 139°45'0 0.0
2014-Oct-17 15:33N 35°30' E 139°45'0 0.0
2014-Oct-17 14:33N 35°30' E 139°45'0 0.0
2014-Oct-17 13:33N 35°30' E 139°45'0 0.0
2014-Oct-17 12:33N 35°30' E 139°45'0 0.0
2014-Oct-17 11:33N 35°30' E 139°45'0 0.0
2014-Oct-17 10:33N 35°30' E 139°45'0 0.0
2014-Oct-17 09:33N 35°30' E 139°45'0 0.0
2014-Oct-17 08:33N 35°30' E 139°45'0 0.0
2014-Oct-17 07:33N 35°30' E 139°45'0 0.0
2014-Oct-17 06:33N 35°30' E 139°45'0 0.0
2014-Oct-17 05:33N 35°30' E 139°45'0 0.0
2014-Oct-17 04:31N 35°30' E 139°45'0 0.0
2014-Oct-17 03:31N 35°30' E 139°45'0 0.0
2014-Oct-17 02:31N 35°30' E 139°45'0 0.0
2014-Oct-17 01:31N 35°30' E 139°45'0 0.0
2014-Oct-17 00:31N 35°30' E 139°45'3 2.8
2014-Oct-16 23:33N 35°29' E 139°42'10 9.6
2014-Oct-16 22:33N 35°20' E 139°44'  
2014-Oct-14 11:32N 35°07' E 139°44'1212.3
2014-Oct-14 10:33N 35°19' E 139°43'1312.6
2014-Oct-14 09:33N 35°30' E 139°51'4 0.1
2014-Oct-12 20:32N 35°33' E 139°54'0 0.0
2014-Oct-12 19:09N 35°33' E 139°54'0 0.0
2014-Oct-12 17:30N 35°33' E 139°54'0 0.0
2014-Oct-12 16:25N 35°33' E 139°54'0 0.0
2014-Oct-12 10:28N 35°33' E 139°54'0 0.0
2014-Oct-12 03:22N 35°33' E 139°54'7 8.3
2014-Oct-12 02:33N 35°30' E 139°47'1 0.9
2014-Oct-12 01:31N 35°31' E 139°46'0 0.0
2014-Oct-12 00:33N 35°31' E 139°46'4 4.2
2014-Oct-11 23:33N 35°29' E 139°42'5 5.2
2014-Oct-11 22:33N 35°24' E 139°46'0 0.0
2014-Oct-11 21:27N 35°24' E 139°46'0 0.0
2014-Oct-11 20:33N 35°24' E 139°46'0 0.0
2014-Oct-11 19:32N 35°24' E 139°46'0 0.0
2014-Oct-11 18:32N 35°24' E 139°46'0 0.0
2014-Oct-11 17:26N 35°24' E 139°46'0 0.0
2014-Oct-11 16:32N 35°24' E 139°46'0 0.0
2014-Oct-11 15:32N 35°24' E 139°46'0 0.0
2014-Oct-11 14:29N 35°24' E 139°46'3 2.9
2014-Oct-11 13:33N 35°27' E 139°47'3 3.3
2014-Oct-11 12:33N 35°30' E 139°45'0 0.0
2014-Oct-11 11:33N 35°30' E 139°45'0 0.0
2014-Oct-11 10:33N 35°30' E 139°45'0 0.0
2014-Oct-11 09:33N 35°30' E 139°45'0 0.0
2014-Oct-11 08:33N 35°30' E 139°45'3 3.5
2014-Oct-11 07:34N 35°27' E 139°43'4 3.8
2014-Oct-11 06:33N 35°25' E 139°46'0 0.0
2014-Oct-11 05:32N 35°25' E 139°46'8 8.3
2014-Oct-11 04:34N 35°17' E 139°46'  
Track history (hours):
 
Tides and Currents Weather Stations Pressure Air Temp Water Temp Dewpoint Dewpoint Depression Visibility Wind Speed Wind Dir Waves Ship Positions

Shinsei Maru

Last reported at 2014-Oct-20 22:33 UTC. Time now 2014-Oct-20 22:59 UTC.
Position N 35°14' E 139°47'.

Length 104 m; draft 6.5 m.

Type: Tanker. MMSI: 431301775.

Date/timePositionNaut miles runAvg speedWind from/ knotsBaromVisibWave heightAir tempDewpointWater temp
2014-Oct-20 22:33N 35°14' E 139°47'  
2014-Oct-18 09:17N 35°04' E 139°43'1014.5
2014-Oct-18 08:33N 35°14' E 139°46'1212.4
2014-Oct-18 07:33N 35°26' E 139°44'5 4.9
2014-Oct-18 06:28N 35°31' E 139°46'0 0.1
2014-Oct-18 05:33N 35°31' E 139°46'0 0.0
2014-Oct-18 04:31N 35°31' E 139°46'0 0.0
2014-Oct-18 03:28N 35°31' E 139°46'0 0.0
2014-Oct-18 02:34N 35°31' E 139°46'0 0.0
2014-Oct-18 01:34N 35°31' E 139°46'0 0.0
2014-Oct-18 00:28N 35°31' E 139°46'0 0.0
2014-Oct-17 23:31N 35°31' E 139°46'0 0.0
2014-Oct-17 22:31N 35°31' E 139°46'0 0.4
2014-Oct-17 21:33N 35°31' E 139°46'1 0.7
2014-Oct-17 20:31N 35°30' E 139°45'0 0.0
2014-Oct-17 19:33N 35°30' E 139°45'0 0.0
2014-Oct-17 18:33N 35°30' E 139°45'0 0.0
2014-Oct-17 17:33N 35°30' E 139°45'0 0.0
2014-Oct-17 16:33N 35°30' E 139°45'0 0.0
2014-Oct-17 15:33N 35°30' E 139°45'0 0.0
2014-Oct-17 14:33N 35°30' E 139°45'0 0.0
2014-Oct-17 13:33N 35°30' E 139°45'0 0.0
2014-Oct-17 12:33N 35°30' E 139°45'0 0.0
2014-Oct-17 11:33N 35°30' E 139°45'0 0.0
2014-Oct-17 10:33N 35°30' E 139°45'0 0.0
2014-Oct-17 09:33N 35°30' E 139°45'0 0.0
2014-Oct-17 08:33N 35°30' E 139°45'0 0.0
2014-Oct-17 07:33N 35°30' E 139°45'0 0.0
2014-Oct-17 06:33N 35°30' E 139°45'0 0.0
2014-Oct-17 05:33N 35°30' E 139°45'0 0.0
2014-Oct-17 04:31N 35°30' E 139°45'0 0.0
2014-Oct-17 03:31N 35°30' E 139°45'0 0.0
2014-Oct-17 02:31N 35°30' E 139°45'0 0.0
2014-Oct-17 01:31N 35°30' E 139°45'0 0.0
2014-Oct-17 00:31N 35°30' E 139°45'3 2.8
2014-Oct-16 23:33N 35°29' E 139°42'10 9.6
2014-Oct-16 22:33N 35°20' E 139°44'  
2014-Oct-14 11:32N 35°07' E 139°44'1212.3
2014-Oct-14 10:33N 35°19' E 139°43'1312.6
2014-Oct-14 09:33N 35°30' E 139°51'4 0.1
2014-Oct-12 20:32N 35°33' E 139°54'0 0.0
2014-Oct-12 19:09N 35°33' E 139°54'0 0.0
2014-Oct-12 17:30N 35°33' E 139°54'0 0.0
2014-Oct-12 16:25N 35°33' E 139°54'0 0.0
2014-Oct-12 10:28N 35°33' E 139°54'0 0.0
2014-Oct-12 03:22N 35°33' E 139°54'7 8.3
2014-Oct-12 02:33N 35°30' E 139°47'1 0.9
2014-Oct-12 01:31N 35°31' E 139°46'0 0.0
2014-Oct-12 00:33N 35°31' E 139°46'4 4.2
2014-Oct-11 23:33N 35°29' E 139°42'5 5.2
2014-Oct-11 22:33N 35°24' E 139°46'0 0.0
2014-Oct-11 21:27N 35°24' E 139°46'0 0.0
2014-Oct-11 20:33N 35°24' E 139°46'0 0.0
2014-Oct-11 19:32N 35°24' E 139°46'0 0.0
2014-Oct-11 18:32N 35°24' E 139°46'0 0.0
2014-Oct-11 17:26N 35°24' E 139°46'0 0.0
2014-Oct-11 16:32N 35°24' E 139°46'0 0.0
2014-Oct-11 15:32N 35°24' E 139°46'0 0.0
2014-Oct-11 14:29N 35°24' E 139°46'3 2.9
2014-Oct-11 13:33N 35°27' E 139°47'3 3.3
2014-Oct-11 12:33N 35°30' E 139°45'0 0.0
2014-Oct-11 11:33N 35°30' E 139°45'0 0.0
2014-Oct-11 10:33N 35°30' E 139°45'0 0.0
2014-Oct-11 09:33N 35°30' E 139°45'0 0.0
2014-Oct-11 08:33N 35°30' E 139°45'3 3.5
2014-Oct-11 07:34N 35°27' E 139°43'4 3.8
2014-Oct-11 06:33N 35°25' E 139°46'0 0.0
2014-Oct-11 05:32N 35°25' E 139°46'8 8.3
2014-Oct-11 04:34N 35°17' E 139°46'  

Dump ship's entire track history